Defiance, OH

9:51 PM EST on February 24, 2017 (GMT -0500)
Defiance Memorial

Weather History for KDFI - May, 2012

Change the Weather History Date:

Thursday, May 3, 2012

  Actual Average Record
Temperature  
Mean Temperature 76 °F -  
Max Temperature 87 °F 67 °F 88 °F (1959)
Min Temperature 64 °F 40 °F 28 °F (1978)
Cooling Degree Days 10    
Growing Degree Days 26 (Base 50)    
Moisture  
Dew Point 62 °F    
Average Humidity 64    
Maximum Humidity 100    
Minimum Humidity 40    
Precipitation  
Precipitation 0.00 in - - ()
Sea Level Pressure  
Sea Level Pressure 29.96 in    
Wind  
Wind Speed 6 mph (SW)    
Max Wind Speed 23 mph    
Max Gust Speed 36 mph    
Visibility 10 miles    
Events      
Averages and records for this station are not official NWS values.
T = Trace of Precipitation, MM = Missing Value Source: NWS Daily Summary

Daily Weather History Graph

Daily Weather History Graph

Search for Another Location

Airport or City:

Trip Planner

Search our weather history database for the weather conditions in past years. The results will help you decide how hot, cold, wet, or windy it might be!

Date:

Astronomy

May. 03, 2012 Rise Set
Actual Time 6:31 AM EDT 8:37 PM EDT
Civil Twilight 6:01 AM EDT 9:08 PM EDT
Nautical Twilight 5:24 AM EDT 9:45 PM EDT
Astronomical Twilight 4:44 AM EDT 10:26 PM EDT
Moon 5:59 PM EDT (5/3) 4:37 AM EDT (5/3)
Length of Visible Light 15h 06m
Length of Day
14h 05m
Waxing Gibbous, 91% of the Moon is Illuminated
May 3
Waxing Gibbous
May 5
Full
May 12
Last Quarter
May 20
New
May 28
First Quarter

Hourly Weather History & Observations

Time (EDT) Temp. Heat Index Dew Point Humidity Pressure Visibility Wind Dir Wind Speed Gust Speed Precip Events Conditions
12:53 AM 66.9 °F - 64.0 °F 90% 29.99 in 10.0 mi Calm Calm - N/A   Mostly Cloudy
1:53 AM 66.0 °F - 63.0 °F 90% 29.99 in 9.0 mi Calm Calm - N/A   Partly Cloudy
2:53 AM 64.0 °F - 64.0 °F 100% 29.97 in 6.0 mi Calm Calm - N/A   Clear
3:53 AM 66.9 °F - 64.0 °F 90% 29.96 in 10.0 mi Calm Calm - N/A   Clear
4:53 AM 66.0 °F - 63.0 °F 90% 29.97 in 10.0 mi South 3.5 mph - N/A   Clear
5:53 AM 64.9 °F - 62.1 °F 90% 29.98 in 8.0 mi Calm Calm - N/A   Clear
6:53 AM 66.0 °F - 62.1 °F 87% 30.00 in 7.0 mi Calm Calm - N/A   Partly Cloudy
7:53 AM 70.0 °F - 63.0 °F 78% 30.01 in 10.0 mi SSW 6.9 mph - N/A   Clear
8:53 AM 73.9 °F - 64.9 °F 73% 30.02 in 10.0 mi SW 10.4 mph - N/A   Clear
9:53 AM 78.1 °F - 64.9 °F 64% 30.01 in 10.0 mi SW 10.4 mph - N/A   Partly Cloudy
10:53 AM 82.0 °F 83.1 °F 63.0 °F 52% 30.01 in 10.0 mi SW 9.2 mph - N/A   Partly Cloudy
11:53 AM 84.0 °F 84.9 °F 63.0 °F 49% 29.99 in 10.0 mi SSW 16.1 mph 24.2 mph N/A   Clear
12:53 PM 84.9 °F 85.4 °F 62.1 °F 46% 29.99 in 10.0 mi SW 19.6 mph 26.5 mph N/A   Clear
1:53 PM 84.9 °F 84.4 °F 59.0 °F 41% 29.97 in 10.0 mi SW 17.3 mph 29.9 mph N/A   Clear
2:53 PM 87.1 °F 86.7 °F 60.1 °F 40% 29.95 in 10.0 mi SW 23.0 mph 33.4 mph N/A   Clear
3:53 PM 87.1 °F 87.0 °F 61.0 °F 41% 29.94 in 10.0 mi SW 16.1 mph 35.7 mph N/A   Partly Cloudy
4:53 PM 87.1 °F 87.0 °F 61.0 °F 41% 29.92 in 10.0 mi SW 15.0 mph 29.9 mph N/A   Clear
5:53 PM 86.0 °F 86.1 °F 61.0 °F 43% 29.89 in 10.0 mi SW 17.3 mph 27.6 mph N/A   Clear
6:53 PM 84.9 °F 84.2 °F 57.9 °F 40% 29.88 in 10.0 mi SW 17.3 mph 29.9 mph N/A   Clear
7:53 PM 82.9 °F 82.8 °F 59.0 °F 44% 29.88 in 10.0 mi SW 10.4 mph - N/A   Clear
8:53 PM 79.0 °F - 62.1 °F 56% 29.92 in 10.0 mi WSW 3.5 mph - N/A   Clear
9:53 PM 78.1 °F - 62.1 °F 58% 29.95 in 10.0 mi SSW 8.1 mph - N/A   Scattered Clouds
10:53 PM 75.9 °F - 62.1 °F 62% 29.97 in 10.0 mi SSW 6.9 mph - N/A   Scattered Clouds
11:53 PM 73.9 °F - 62.1 °F 66% 29.95 in 10.0 mi SW 6.9 mph - N/A   Clear